{"data":{"norad_id":53619,"epoch":"2026-05-24T23:43:47.468640Z","epoch_age_seconds":69230,"freshness":"FRESH","line1":"1 53619U 22104AH  26144.98874385  .00000447  00000+0  46196-4 0  9996","line2":"2 53619  53.2165 251.5912 0001295  85.0081 275.1059 15.08839544207153","mean_motion":15.08839544,"eccentricity":0.0001295,"inclination_deg":53.2165,"raan_deg":251.5912,"arg_perigee_deg":85.0081,"mean_anomaly_deg":275.1059,"bstar":4.6196e-5,"rev_number":20715,"period_min":95.437583520809,"perigee_km":538.84891708316,"apogee_km":540.6406484649,"semimajor_km":6917.881782774,"source":"CELESTRAK","updated_at":"2026-05-25T13:38:17.478832Z"}}